Russell, KS

6:42 PM CDT on May 22, 2017 (GMT -0500)
Russell Municipal

Weather History for KRSL - December, 2012

Change the Weather History Date:

Tuesday, December 4, 2012

  Actual Average Record
Temperature  
Mean Temperature 42 °F -  
Max Temperature 60 °F 48 °F 73 °F (1965)
Min Temperature 23 °F 23 °F 7 °F (1964)
Degree Days  
Heating Degree Days 24    
Moisture  
Dew Point 18 °F    
Average Humidity 46    
Maximum Humidity 78    
Minimum Humidity 19    
Precipitation  
Precipitation 0.00 in - - ()
Sea Level Pressure  
Sea Level Pressure 30.29 in    
Wind  
Wind Speed 8 mph (WSW)    
Max Wind Speed 12 mph    
Max Gust Speed -    
Visibility 10 miles    
Events      
Averages and records for this station are not official NWS values.
T = Trace of Precipitation, MM = Missing Value Source: NWS Daily Summary

Daily Weather History Graph

Daily Weather History Graph

Search for Another Location

Airport or City:

Trip Planner

Search our weather history database for the weather conditions in past years. The results will help you decide how hot, cold, wet, or windy it might be!

Date:

Astronomy

Dec. 04, 2012 Rise Set
Actual Time 7:38 AM CST 5:13 PM CST
Civil Twilight 7:08 AM CST 5:42 PM CST
Nautical Twilight 6:35 AM CST 6:15 PM CST
Astronomical Twilight 6:03 AM CST 6:48 PM CST
Moon 10:59 PM CST (12/4) 11:35 AM CST (12/4)
Length of Visible Light 10h 34m
Length of Day
9h 35m
Waning Gibbous, 69% of the Moon is Illuminated
Dec 4
Waning Gibbous
Dec 6
Last Quarter
Dec 13
New
Dec 19
First Quarter
Dec 28
Full

Hourly Weather History & Observations

Time (CST) Temp. Windchill Dew Point Humidity Pressure Visibility Wind Dir Wind Speed Gust Speed Precip Events Conditions
12:53 AM 35.1 °F 28.6 °F 23.0 °F 61% 30.17 in 10.0 mi NNW 8.1 mph - N/A   Clear
1:53 AM 33.1 °F 25.5 °F 21.0 °F 61% 30.19 in 10.0 mi NNW 9.2 mph - N/A   Clear
2:53 AM 34.0 °F 25.5 °F 21.0 °F 59% 30.20 in 10.0 mi NNW 11.5 mph - N/A   Clear
3:53 AM 30.0 °F 22.4 °F 19.9 °F 66% 30.22 in 10.0 mi NW 8.1 mph - N/A   Clear
4:53 AM 27.0 °F 20.5 °F 19.0 °F 72% 30.25 in 10.0 mi West 5.8 mph - N/A   Clear
5:53 AM 23.0 °F 14.7 °F 17.1 °F 78% 30.28 in 10.0 mi WSW 6.9 mph - N/A   Clear
6:53 AM 24.1 °F 15.2 °F 17.1 °F 75% 30.32 in 10.0 mi NNW 8.1 mph - N/A   Clear
7:53 AM 25.0 °F 18.1 °F 17.1 °F 72% 30.33 in 10.0 mi West 5.8 mph - N/A   Clear
8:53 AM 28.9 °F 25.2 °F 21.0 °F 72% 30.35 in 10.0 mi WSW 3.5 mph - N/A   Clear
9:53 AM 39.9 °F 35.1 °F 23.0 °F 51% 30.36 in 9.0 mi WSW 6.9 mph - N/A   Clear
10:53 AM 51.1 °F - 18.0 °F 27% 30.35 in 10.0 mi WNW 11.5 mph - N/A   Clear
11:53 AM 54.0 °F - 17.1 °F 23% 30.33 in 10.0 mi WNW 9.2 mph - N/A   Clear
12:53 PM 57.0 °F - 18.0 °F 22% 30.31 in 10.0 mi NW 5.8 mph - N/A   Clear
1:53 PM 59.0 °F - 18.0 °F 20% 30.30 in 10.0 mi WSW 5.8 mph - N/A   Clear
2:53 PM 59.0 °F - 17.1 °F 20% 30.28 in 10.0 mi West 5.8 mph - N/A   Clear
3:53 PM 60.1 °F - 17.1 °F 19% 30.28 in 10.0 mi WSW 5.8 mph - N/A   Clear
4:53 PM 55.9 °F - 17.1 °F 22% 30.28 in 10.0 mi South 4.6 mph - N/A   Clear
5:53 PM 48.9 °F - 17.1 °F 28% 30.30 in 10.0 mi South 6.9 mph - N/A   Clear
6:53 PM 43.0 °F 38.2 °F 17.1 °F 35% 30.30 in 10.0 mi SSW 8.1 mph - N/A   Clear
7:53 PM 39.9 °F 34.5 °F 16.0 °F 38% 30.32 in 10.0 mi South 8.1 mph - N/A   Clear
8:53 PM 37.9 °F 32.1 °F 16.0 °F 41% 30.30 in 10.0 mi South 8.1 mph - N/A   Clear
9:53 PM 36.0 °F 31.1 °F 17.1 °F 46% 30.31 in 10.0 mi South 5.8 mph - N/A   Clear
10:53 PM 36.0 °F 29.0 °F 18.0 °F 48% 30.30 in 10.0 mi South 9.2 mph - N/A   Clear
11:53 PM 35.1 °F 26.9 °F 18.0 °F 50% 30.28 in 10.0 mi South 11.5 mph - N/A   Clear